CW5316 Weather Reports


Display with metric or nautical units.
time (UTC)temp
F
wind
direction
speed
MPH
gust
MPH
rain 1hr
in
rain 24hr
in
rain mn
in
humidity
%
barometer
mb
20260901170525 58 112 3.0 9.0 0.00 0.00 0.00 85 1010.7
20260901170044 58 0 3.0 9.0 0.00 0.00 0.00 86 1010.7
20260901165522 57 103 2.0 7.0 0.00 0.00 0.00 86 1010.7
20260901165027 57 171 2.0 7.0 0.00 0.00 0.00 87 1010.7
20260901164545 57 105 2.0 6.0 0.00 0.00 0.00 87 1010.7
20260901164024 57 119 1.0 8.0 0.00 0.00 0.00 86 1010.7
20260901163523 57 192 2.0 8.0 0.00 0.00 0.00 87 1010.7
20260901163129 57 127 0.0 7.0 0.00 0.00 0.00 88 1010.7
20260901162522 56 102 2.0 7.0 0.00 0.00 0.00 88 1010.8
20260901162025 56 0 2.0 8.0 0.00 0.00 0.00 88 1010.9
20260901161545 56 212 2.0 8.0 0.00 0.00 0.00 88 1010.7
20260901161023 57 130 2.0 8.0 0.00 0.00 0.00 88 1010.8
20260901160525 57 0 1.0 8.0 0.00 0.00 0.00 87 1010.7
20260901160045 57 232 1.0 8.0 0.00 0.00 0.00 88 1010.8
20260901155525 57 113 2.0 8.0 0.00 0.00 0.00 88 1010.8
20260901155023 56 125 1.0 8.0 0.00 0.00 0.00 87 1010.8
20260901154539 56 254 2.0 8.0 0.00 0.00 0.00 88 1010.8
20260901154024 56 123 2.0 9.0 0.00 0.00 0.00 87 1010.7
20260901153529 56 113 4.0 9.0 0.00 0.00 0.00 87 1010.8
20260901153046 56 132 3.0 9.0 0.00 0.00 0.00 88 1010.8
20260901152522 56 128 2.0 8.0 0.00 0.00 0.00 88 1010.9
20260901152025 56 0 3.0 8.0 0.00 0.00 0.00 88 1010.8
20260901151546 55 119 3.0 8.0 0.00 0.00 0.00 88 1010.6
20260901151030 56 202 2.0 8.0 0.00 0.00 0.00 88 1010.6
20260901150530 56 130 2.0 7.0 0.00 0.00 0.00 88 1010.6
20260901150048 56 90 2.0 9.0 0.00 0.00 0.00 87 1010.5
20260901145524 56 119 3.0 9.0 0.00 0.00 0.00 88 1010.4
20260901145026 56 135 2.0 8.0 0.00 0.00 0.00 90 1010.4
20260901144547 55 218 3.0 8.0 0.00 0.00 0.00 90 1010.3
20260901144027 55 132 3.0 8.0 0.00 0.00 0.00 91 1010.4
20260901143527 55 131 5.0 9.0 0.00 0.00 0.00 91 1010.3
20260901143057 55 121 3.0 11.0 0.00 0.00 0.00 91 1010.2
20260901142525 55 106 4.0 11.0 0.00 0.00 0.00 91 1010.2
20260901142023 55 84 3.0 11.0 0.00 0.00 0.00 91 1010.1
20260901141606 55 113 3.0 10.0 0.00 0.00 0.00 90 1010.1
20260901141026 55 116 4.0 11.0 0.00 0.00 0.00 90 1010.2
20260901140523 55 123 4.0 11.0 0.00 0.00 0.00 91 1010.1
20260901140050 55 94 2.0 8.0 0.00 0.00 0.00 91 1010.1
20260901135523 55 92 2.0 8.0 0.00 0.00 0.00 91 1010.1
20260901135024 55 130 1.0 4.0 0.00 0.00 0.00 91 1010.1
20260901134544 55 115 0.0 4.0 0.00 0.00 0.00 91 1010.1
20260901134024 55 104 2.0 4.0 0.00 0.00 0.00 91 1010.1
20260901133524 55 0 0.0 6.0 0.00 0.00 0.00 91 1010.1
20260901133052 55 0 1.0 6.0 0.00 0.00 0.00 91 1010.0
20260901132524 55 130 1.0 4.0 0.00 0.00 0.00 91 1010.1
20260901132024 55 107 1.0 5.0 0.00 0.00 0.00 91 1010.0
20260901131548 55 100 2.0 6.0 0.00 0.00 0.00 91 1009.9
20260901131026 55 0 1.0 6.0 0.00 0.00 0.00 91 1010.0
20260901130523 55 111 1.0 4.0 0.00 0.00 0.00 92 1010.1
20260901130050 55 162 1.0 4.0 0.00 0.00 0.00 91 1010.1
20260901125525 55 113 2.0 7.0 0.00 0.00 0.00 91 1010.0
20260901125028 55 169 2.0 7.0 0.00 0.00 0.00 91 1010.1
20260901124549 55 122 3.0 8.0 0.00 0.00 0.00 91 1010.1
20260901124023 55 0 2.0 8.0 0.00 0.00 0.00 91 1010.0
20260901123523 55 138 2.0 8.0 0.00 0.00 0.00 92 1010.0
20260901123045 55 113 1.0 6.0 0.00 0.00 0.00 92 1009.9
20260901122527 55 114 1.0 6.0 0.00 0.00 0.00 92 1010.0
20260901122024 55 126 1.0 6.0 0.00 0.00 0.00 93 1010.0
20260901121544 55 109 0.0 6.0 0.00 0.00 0.00 93 1009.9
20260901121025 55 121 2.0 6.0 0.00 0.00 0.00 93 1009.8
20260901120523 54 0 1.0 4.0 0.00 0.00 0.00 93 1009.7
20260901120113 54 0 1.0 4.0 0.00 0.00 0.00 94 1009.8
20260901115524 54 177 0.0 3.0 0.00 0.00 0.00 93 1009.6
20260901115025 54 0 0.0 2.0 0.00 0.00 0.00 94 1009.7
20260901114548 54 0 0.0 2.0 0.00 0.00 0.00 93 1009.8
20260901114026 54 0 0.0 0.0 0.00 0.00 0.00 94 1009.9
20260901113524 54 0 0.0 0.0 0.00 0.00 0.00 94 1009.8
20260901113054 53 0 0.0 1.0 0.00 0.00 0.00 93 1009.8
20260901112524 54 0 0.0 1.0 0.00 0.00 0.00 93 1009.7
20260901112024 54 0 0.0 2.0 0.00 0.00 0.00 93 1009.6
20260901111542 55 0 0.0 2.0 0.00 0.00 0.00 93 1009.7
20260901111023 55 90 0.0 2.0 0.00 0.00 0.00 93 1009.6
20260901110521 54 0 0.0 2.0 0.00 0.00 0.00 93 1009.6
20260901110058 54 0 0.0 2.0 0.00 0.00 0.00 93 1009.5
20260901105523 55 0 0.0 2.0 0.00 0.00 0.00 93 1009.5
20260901105023 55 0 0.0 2.0 0.00 0.00 0.00 94 1009.6
20260901104552 54 118 0.0 2.0 0.00 0.00 0.00 94 1009.6
20260901104024 54 0 0.0 2.0 0.00 0.00 0.00 94 1009.6
20260901103525 54 0 0.0 1.0 0.00 0.00 0.00 94 1009.6
20260901103046 54 0 0.0 1.0 0.00 0.00 0.00 94 1009.6
20260901102524 54 0 0.0 1.0 0.00 0.00 0.00 94 1009.5
20260901102023 54 0 0.0 2.0 0.00 0.00 0.00 94 1009.5
20260901101552 54 0 0.0 2.0 0.00 0.00 0.00 94 1009.5
20260901101023 54 0 0.0 3.0 0.00 0.00 0.00 94 1009.4
20260901100523 54 114 0.0 3.0 0.00 0.00 0.00 93 1009.4
20260901100038 54 0 0.0 1.0 0.00 0.00 0.00 93 1009.5
20260901095525 54 0 0.0 2.0 0.00 0.00 0.00 93 1009.5
20260901095025 54 0 0.0 2.0 0.00 0.00 0.00 94 1009.5
20260901094550 54 207 0.0 1.0 0.00 0.00 0.00 93 1009.5
20260901094025 54 0 0.0 0.0 0.00 0.00 0.00 93 1009.5
20260901093526 54 0 0.0 0.0 0.00 0.00 0.00 93 1009.4
20260901093051 54 0 0.0 0.0 0.00 0.00 0.00 93 1009.5
20260901092525 55 0 0.0 0.0 0.00 0.00 0.00 92 1009.5
20260901092026 55 0 0.0 0.0 0.00 0.00 0.00 92 1009.6
20260901091559 55 0 0.0 1.0 0.00 0.00 0.00 92 1009.6
20260901091028 55 0 0.0 1.0 0.00 0.00 0.00 91 1009.6
20260901090523 56 0 0.0 1.0 0.00 0.00 0.00 90 1009.6
20260901090050 56 0 0.0 1.0 0.00 0.00 0.00 90 1009.5
20260901085521 56 0 0.0 1.0 0.00 0.00 0.00 90 1009.5
20260901085026 56 0 0.0 1.0 0.00 0.00 0.00 90 1009.5
20260901084544 56 0 0.0 1.0 0.00 0.00 0.00 91 1009.6
20260901084024 56 0 0.0 1.0 0.00 0.00 0.00 91 1009.5
20260901083528 56 0 0.0 1.0 0.00 0.00 0.00 91 1009.5
20260901083045 56 0 0.0 1.0 0.00 0.00 0.00 91 1009.5
20260901082523 56 0 0.0 0.0 0.00 0.00 0.00 91 1009.6
20260901082023 56 0 0.0 0.0 0.00 0.00 0.00 91 1009.6
20260901081552 56 0 0.0 0.0 0.00 0.00 0.00 91 1009.6
20260901081023 56 0 0.0 0.0 0.00 0.00 0.00 91 1009.5
20260901080522 56 0 0.0 0.0 0.00 0.00 0.00 91 1009.5
20260901080050 56 0 0.0 0.0 0.00 0.00 0.00 91 1009.4
20260901075525 56 0 0.0 0.0 0.00 0.00 0.00 91 1009.4
20260901075029 56 0 0.0 1.0 0.00 0.00 0.00 90 1009.2
20260901074550 56 0 0.0 1.0 0.00 0.00 0.00 90 1009.3
20260901074025 56 0 0.0 1.0 0.00 0.00 0.00 90 1009.3
20260901073529 56 0 0.0 0.0 0.00 0.00 0.00 90 1009.3
20260901073044 56 0 0.0 0.0 0.00 0.00 0.00 90 1009.3
20260901072524 56 0 0.0 0.0 0.00 0.00 0.00 90 1009.3
20260901072027 56 0 0.0 0.0 0.00 0.00 0.00 90 1009.2
20260901071602 56 0 0.0 0.0 0.00 0.00 0.00 90 1009.2
20260901071022 56 0 0.0 0.0 0.00 0.00 0.00 90 1009.2
20260901070522 56 0 0.0 0.0 0.00 0.00 0.00 90 1009.2
20260901070049 57 0 0.0 0.0 0.00 0.00 0.00 89 1009.2
20260901065525 57 0 0.0 0.0 0.00 0.00 0.00 89 1009.2
20260901065022 57 0 0.0 0.0 0.00 0.00 0.00 89 1009.2
20260901064545 57 0 0.0 0.0 0.00 0.00 0.00 89 1009.2
20260901064024 57 0 0.0 0.0 0.00 0.00 0.00 89 1009.3
20260901063526 57 0 0.0 0.0 0.00 0.00 0.00 89 1009.3
20260901063045 57 0 0.0 0.0 0.00 0.00 0.00 88 1009.3
20260901062524 57 0 0.0 0.0 0.00 0.00 0.00 88 1009.3
20260901062025 57 0 0.0 0.0 0.00 0.00 0.00 88 1009.3
20260901061552 57 0 0.0 0.0 0.00 0.00 0.00 88 1009.4
20260901061028 58 0 0.0 0.0 0.00 0.00 0.00 88 1009.3
20260901060525 58 0 0.0 0.0 0.00 0.00 0.00 87 1009.3
20260901060043 58 0 0.0 0.0 0.00 0.00 0.00 87 1009.4
20260901055527 58 0 0.0 0.0 0.00 0.00 0.00 86 1009.5
20260901055026 58 0 0.0 0.0 0.00 0.00 0.00 87 1009.6
20260901054546 58 0 0.0 0.0 0.00 0.00 0.00 87 1009.6
20260901054024 58 0 0.0 0.0 0.00 0.00 0.00 86 1009.6
20260901053524 59 0 0.0 0.0 0.00 0.00 0.00 86 1009.6
20260901053046 59 0 0.0 0.0 0.00 0.00 0.00 86 1009.5
20260901052524 59 0 0.0 0.0 0.00 0.00 0.00 85 1009.5
20260901052028 59 0 0.0 0.0 0.00 0.00 0.00 86 1009.6
20260901051545 59 0 0.0 0.0 0.00 0.00 0.00 86 1009.7
20260901051023 59 0 0.0 0.0 0.00 0.00 0.00 86 1009.7
20260901050523 59 0 0.0 0.0 0.00 0.00 0.00 86 1009.7
20260901050044 59 0 0.0 0.0 0.00 0.00 0.00 86 1009.8
20260901045523 59 0 0.0 0.0 0.00 0.00 0.00 86 1009.8
20260901045029 60 0 0.0 0.0 0.00 0.00 0.00 86 1009.9
20260901044538 60 0 0.0 0.0 0.00 0.00 0.00 85 1009.9
20260901044024 60 0 0.0 0.0 0.00 0.00 0.00 85 1009.8
20260901043524 60 0 0.0 0.0 0.00 0.00 0.00 85 1009.8
20260901043107 60 0 0.0 0.0 0.00 0.00 0.00 85 1009.8
20260901042527 60 0 0.0 0.0 0.00 0.00 0.00 85 1009.8
20260901042025 61 0 0.0 0.0 0.00 0.00 0.00 85 1009.7
20260901041544 61 0 0.0 0.0 0.00 0.00 0.00 85 1009.8
20260901041023 61 0 0.0 0.0 0.00 0.00 0.00 86 1009.7
20260901040619 61 0 0.0 0.0 0.00 0.00 0.00 86 1009.7
20260901040055 61 0 0.0 0.0 0.00 0.00 0.00 85 1009.6
20260901035524 62 0 0.0 0.0 0.00 0.00 0.00 84 1009.6
20260901035024 62 0 0.0 0.0 0.00 0.00 0.00 83 1009.6
20260901034557 62 0 0.0 0.0 0.00 0.00 0.00 82 1009.7
20260901034022 62 0 0.0 0.0 0.00 0.00 0.00 82 1009.6
20260901033524 62 0 0.0 0.0 0.00 0.00 0.00 84 1009.4
20260901033104 62 0 0.0 0.0 0.00 0.00 0.00 83 1009.4
20260901032524 63 0 0.0 0.0 0.00 0.00 0.00 82 1009.3
20260901032025 63 0 0.0 0.0 0.00 0.00 0.00 83 1009.2
20260901031604 63 0 0.0 0.0 0.00 0.00 0.00 82 1009.3
20260901031027 63 0 0.0 0.0 0.00 0.00 0.00 82 1009.3
20260901030528 63 0 0.0 0.0 0.00 0.00 0.00 82 1009.1
20260901030049 63 0 0.0 0.0 0.00 0.00 0.00 81 1009.1
20260901025529 64 0 0.0 0.0 0.00 0.00 0.00 81 1009.1
20260901025025 64 0 0.0 0.0 0.00 0.00 0.00 81 1009.1
20260901024550 64 0 0.0 0.0 0.00 0.00 0.00 80 1009.1
20260901024025 64 0 0.0 0.0 0.00 0.00 0.00 79 1009.0
20260901023522 65 0 0.0 0.0 0.00 0.00 0.00 80 1009.0
20260901023046 65 0 0.0 0.0 0.00 0.00 0.00 80 1009.0
20260901022525 65 0 0.0 0.0 0.00 0.00 0.00 79 1009.1
20260901022025 66 0 0.0 0.0 0.00 0.00 0.00 78 1009.0
20260901021546 66 0 0.0 0.0 0.00 0.00 0.00 78 1009.0
20260901021023 66 0 0.0 0.0 0.00 0.00 0.00 78 1008.9
20260901020524 66 0 0.0 0.0 0.00 0.00 0.00 77 1008.9
20260901020046 66 0 0.0 0.0 0.00 0.00 0.00 77 1008.9
20260901015523 67 0 0.0 0.0 0.00 0.00 0.00 76 1008.9
20260901015024 67 0 0.0 0.0 0.00 0.00 0.00 76 1009.0
20260901014549 67 0 0.0 0.0 0.00 0.00 0.00 75 1009.0
20260901014024 68 0 0.0 0.0 0.00 0.00 0.00 74 1008.9
20260901013524 68 0 0.0 0.0 0.00 0.00 0.00 74 1008.9
20260901013049 68 0 0.0 0.0 0.00 0.00 0.00 73 1008.9
20260901012520 69 0 0.0 0.0 0.00 0.00 0.00 73 1008.9
20260901012024 69 0 0.0 0.0 0.00 0.00 0.00 72 1008.8
20260901011544 70 0 0.0 0.0 0.00 0.00 0.00 71 1008.8
20260901011026 70 0 0.0 2.0 0.00 0.00 0.00 69 1008.7
20260901010526 71 0 0.0 2.0 0.00 0.00 0.00 69 1008.8
20260901010042 72 267 0.0 2.0 0.00 0.00 0.00 67 1008.8
20260901005524 72 240 0.0 2.0 0.00 0.00 0.00 65 1008.9
20260901005023 73 0 0.0 2.0 0.00 0.00 0.00 63 1008.9
20260901004552 72 0 0.0 2.0 0.00 0.00 0.00 62 1008.8
20260901004022 72 0 0.0 2.0 0.00 0.00 0.00 58 1008.8
20260901003522 73 0 0.0 1.0 0.00 0.00 0.00 59 1008.8
20260901003057 74 0 0.0 2.0 0.00 0.00 0.00 59 1008.8
20260901002523 74 0 0.0 4.0 0.00 0.00 0.00 58 1008.7
20260901002025 74 282 0.0 4.0 0.00 0.00 0.00 58 1008.8
20260901001559 75 244 0.0 4.0 0.00 0.00 0.00 58 1008.9
20260901001024 74 0 0.0 4.0 0.00 0.00 0.00 58 1009.0
20260901000522 74 0 0.0 3.0 0.00 0.00 0.00 57 1009.0
20260901000040 74 0 0.0 3.0 0.00 0.00 0.00 58 1009.1
20260831235530 74 0 0.0 3.0 0.00 0.00 0.00 57 1009.1
20260831235024 74 250 0.0 2.0 0.00 0.00 0.00 58 1009.1
20260831234544 74 242 0.0 2.0 0.00 0.00 0.00 57 1009.2
20260831234023 74 238 0.0 3.0 0.00 0.00 0.00 56 1009.3
20260831233524 75 258 0.0 3.0 0.00 0.00 0.00 55 1009.2
20260831233043 75 246 0.0 3.0 0.00 0.00 0.00 56 1009.3
20260831232523 76 236 1.0 3.0 0.00 0.00 0.00 54 1009.3
20260831232024 76 231 0.0 4.0 0.00 0.00 0.00 55 1009.4
20260831231551 75 272 0.0 4.0 0.00 0.00 0.00 55 1009.3
20260831231025 75 155 1.0 4.0 0.00 0.00 0.00 55 1009.4
20260831230522 75 101 0.0 4.0 0.00 0.00 0.00 55 1009.4
20260831230050 75 101 2.0 4.0 0.00 0.00 0.00 56 1009.6
20260831225526 75 113 0.0 3.0 0.00 0.00 0.00 55 1009.6
20260831225027 75 70 0.0 3.0 0.00 0.00 0.00 54 1009.6
20260831224545 75 0 0.0 4.0 0.00 0.00 0.00 55 1009.7
20260831224025 75 0 1.0 4.0 0.00 0.00 0.00 54 1009.7
20260831223525 76 224 1.0 4.0 0.00 0.00 0.00 54 1009.7
20260831223043 75 0 1.0 4.0 0.00 0.00 0.00 54 1009.7
20260831222521 76 0 0.0 4.0 0.00 0.00 0.00 55 1009.8
20260831222031 75 0 0.0 4.0 0.00 0.00 0.00 55 1010.0
20260831221600 74 227 1.0 4.0 0.00 0.00 0.00 56 1010.0
20260831221022 74 0 0.0 4.0 0.00 0.00 0.00 57 1010.1
20260831220524 74 0 1.0 4.0 0.00 0.00 0.00 56 1010.1
20260831220053 75 0 0.0 3.0 0.00 0.00 0.00 55 1010.2
20260831215523 74 0 0.0 6.0 0.00 0.00 0.00 58 1010.0
20260831215024 73 0 1.0 6.0 0.00 0.00 0.00 57 1010.1
20260831214555 74 127 1.0 3.0 0.00 0.00 0.00 56 1010.1
20260831214022 74 0 0.0 4.0 0.00 0.00 0.00 57 1010.2
20260831213528 74 0 1.0 4.0 0.00 0.00 0.00 56 1010.4
20260831213051 74 15 1.0 3.0 0.00 0.00 0.00 57 1010.4
20260831212524 73 0 0.0 3.0 0.00 0.00 0.00 57 1010.4
20260831212025 73 0 0.0 8.0 0.00 0.00 0.00 58 1010.7
20260831211541 72 0 1.0 8.0 0.00 0.00 0.00 58 1010.8
20260831211022 71 140 2.0 8.0 0.00 0.00 0.00 58 1010.8
20260831210523 72 78 2.0 6.0 0.00 0.00 0.00 59 1010.9
20260831210049 71 0 1.0 6.0 0.00 0.00 0.00 59 1010.9
20260831205522 72 0 1.0 6.0 0.00 0.00 0.00 58 1010.9
20260831205027 71 0 0.0 6.0 0.00 0.00 0.00 60 1011.0
20260831204553 71 121 1.0 6.0 0.00 0.00 0.00 58 1011.0
20260831204022 71 0 0.0 4.0 0.00 0.00 0.00 59 1011.0
20260831203522 72 0 0.0 6.0 0.00 0.00 0.00 58 1011.1
20260831203058 70 0 1.0 6.0 0.00 0.00 0.00 60 1011.2
20260831202524 71 90 1.0 5.0 0.00 0.00 0.00 59 1011.3
20260831202024 70 0 1.0 5.0 0.00 0.00 0.00 61 1011.3
20260831201540 70 0 1.0 5.0 0.00 0.00 0.00 63 1011.3
20260831201023 70 74 1.0 5.0 0.00 0.00 0.00 61 1011.4
20260831200523 69 0 0.0 7.0 0.00 0.00 0.00 63 1011.4
20260831200047 69 0 0.0 8.0 0.00 0.00 0.00 64 1011.5
20260831195524 68 132 3.0 8.0 0.00 0.00 0.00 63 1011.5
20260831195024 69 90 1.0 7.0 0.00 0.00 0.00 63 1011.6
20260831194545 69 0 0.0 4.0 0.00 0.00 0.00 64 1011.7
20260831194027 68 0 1.0 4.0 0.00 0.00 0.00 65 1011.8
20260831193523 68 125 0.0 4.0 0.00 0.00 0.00 65 1011.9
20260831193044 68 0 0.0 4.0 0.00 0.00 0.00 64 1011.9
20260831192523 68 269 0.0 4.0 0.00 0.00 0.00 65 1012.1
20260831192024 67 291 0.0 4.0 0.00 0.00 0.00 67 1012.1
20260831191600 66 0 2.0 6.0 0.00 0.00 0.00 67 1012.2
20260831191024 66 0 1.0 7.0 0.00 0.00 0.00 68 1012.2
20260831190523 66 105 1.0 7.0 0.00 0.00 0.00 69 1012.3
20260831190055 65 90 1.0 7.0 0.00 0.00 0.00 69 1012.4
20260831185526 65 298 1.0 7.0 0.00 0.00 0.00 69 1012.5
20260831185027 65 100 2.0 6.0 0.00 0.00 0.00 68 1012.5
20260831184550 65 0 0.0 6.0 0.00 0.00 0.00 70 1012.6
20260831184031 65 139 0.0 6.0 0.00 0.00 0.00 70 1012.7
20260831183529 64 106 1.0 6.0 0.00 0.00 0.00 70 1012.6
20260831183044 64 116 1.0 6.0 0.00 0.00 0.00 72 1012.8
20260831182525 63 106 1.0 6.0 0.00 0.00 0.00 71 1012.9
20260831182026 63 49 1.0 4.0 0.00 0.00 0.00 72 1013.0
20260831181549 63 102 1.0 6.0 0.00 0.00 0.00 71 1013.1
20260831181022 63 18 1.0 6.0 0.00 0.00 0.00 72 1013.1
20260831180524 63 277 0.0 6.0 0.00 0.00 0.00 74 1013.1
20260831180047 62 0 2.0 6.0 0.00 0.00 0.00 73 1013.0
20260831175524 63 109 1.0 4.0 0.00 0.00 0.00 72 1013.1
20260831175026 62 74 0.0 3.0 0.00 0.00 0.00 73 1013.2
20260831174544 62 124 1.0 7.0 0.00 0.00 0.00 73 1013.1
20260831174027 61 96 1.0 7.0 0.00 0.00 0.00 74 1013.1
20260831173524 61 0 1.0 4.0 0.00 0.00 0.00 74 1013.2
20260831173106 61 0 0.0 3.0 0.00 0.00 0.00 75 1013.2
20260831172526 60 0 0.0 3.0 0.00 0.00 0.00 76 1013.3
20260831172027 60 0 0.0 3.0 0.00 0.00 0.00 76 1013.4
20260831171547 60 133 1.0 3.0 0.00 0.00 0.00 76 1013.5
20260831171026 60 118 0.0 3.0 0.00 0.00 0.00 78 1013.6